Location: Unspecified
(39.0670°S, 0.0000°E)
Time: 18:54:37
(UTC+00:00)

Envisat - Pass Details

Date: 03 July 2019
Orbit: 764 x 766 km, 98.1° (Epoch: 16 July)

Event Time Altitude Azimuth Distance (km) Brightness Sun altitude
Exits shadow 18:00:05 14° 77° (ENE) 2,050 4.7 -13.4°
Drops below altitude 10° 18:01:55 10° 56° (NE) 2,314 5.1 -13.8°
Sets 18:05:17 0° 32° (NNE) 3,228 6.1 -14.4°
